Clinton, British Columbia

3:14 AM PDT on July 21, 2017 (GMT -0700)
Clinton

Weather History for CWCL - September, 2014

Change the Weather History Date:

Thursday, September 25, 2014

  Actual Average Record
Temperature  
Mean Temperature 47 °F -  
Max Temperature 55 °F 48 °F 77 °F (1997)
Min Temperature 39 °F 29 °F 28 °F (1996)
Degree Days  
Heating Degree Days 18    
Moisture  
Dew Point 39 °F    
Average Humidity 72    
Maximum Humidity 93    
Minimum Humidity 48    
Precipitation  
Precipitation 0.00 in - - ()
Sea Level Pressure  
Sea Level Pressure 29.89 in    
Wind  
Wind Speed 4 mph ()    
Max Wind Speed 9 mph    
Max Gust Speed -    
Visibility 9.0 miles    
Events      
Averages and records for this station are not official NWS values.
T = Trace of Precipitation, MM = Missing Value Source: Averaged Metar Reports

Daily Weather History Graph

Daily Weather History Graph

Search for Another Location

Airport or City:

Trip Planner

Search our weather history database for the weather conditions in past years. The results will help you decide how hot, cold, wet, or windy it might be!

Date:

Astronomy

Sep. 25, 2014 Rise Set
Actual Time 6:57 AM PDT 6:57 PM PDT
Civil Twilight 6:24 AM PDT 7:30 PM PDT
Nautical Twilight 5:45 AM PDT 8:08 PM PDT
Astronomical Twilight 5:04 AM PDT 8:48 PM PDT
Moon 8:31 AM PDT (9/25) 7:30 PM PDT (9/25)
Length of Visible Light 13h 05m
Length of Day
11h 59m
New Moon, 2% of the Moon is Illuminated
Sep 25
New Moon
Oct 1
First Quarter
Oct 8
Full
Oct 15
Last Quarter
Oct 23
New

Hourly Weather History & Observations

Time (PDT) Temp. Windchill Dew Point Humidity Pressure Visibility Wind Dir Wind Speed Gust Speed Precip Events Conditions
12:00 AM 46.4 °F 42.9 °F 37.4 °F 71% 29.87 in 9.0 mi SSW 6.9 mph - N/A   Unknown
1:00 AM 48.2 °F - 37.4 °F 66% 29.88 in 9.0 mi SSW 3.5 mph - N/A   Unknown
2:00 AM 47 °F - 37 °F 60% 29.88 in 9 mi SSW 4.6 mph - -  
2:00 AM 46.4 °F 42.9 °F 37.4 °F 71% 29.88 in 9.0 mi SSW 6.9 mph - N/A   Unknown
3:00 AM 48.2 °F - 37.4 °F 66% 29.88 in 9.0 mi South 6.9 mph - N/A   Unknown
4:00 AM 44.6 °F 42.2 °F 37.4 °F 76% 29.89 in 9.0 mi South 4.6 mph - N/A   Unknown
5:00 AM 45 °F - 37 °F 66% 29.88 in 9 mi South 4.6 mph - -  
5:00 AM 44.6 °F 43.1 °F 37.4 °F 76% 29.88 in 9.0 mi South 3.5 mph - N/A   Unknown
6:00 AM 41.0 °F - 35.6 °F 81% 29.88 in 9.0 mi Calm Calm - N/A   Unknown
7:00 AM 42.8 °F 41.1 °F 35.6 °F 76% 29.90 in 9.0 mi SSW 3.5 mph - N/A   Unknown
8:00 AM 42 °F - 36 °F 73% 29.91 in 9 mi SSW 4.6 mph - -  
8:00 AM 42.8 °F 41.1 °F 35.6 °F 76% 29.91 in 9.0 mi South 3.5 mph - N/A   Unknown
9:00 AM 46.4 °F - 39.2 °F 76% 29.91 in 9.0 mi Calm Calm - N/A   Unknown
10:00 AM 48.2 °F - 41.0 °F 76% 29.91 in 9.0 mi Calm Calm - N/A   Unknown
11:00 AM 49 °F - 42 °F 68% 29.92 in 9 mi South 2.3 mph - -  
11:00 AM 50.0 °F - 41.0 °F 71% 29.92 in 9.0 mi South 2.3 mph - N/A   Unknown
12:00 PM 53.6 °F - 41.0 °F 62% 29.90 in 9.0 mi SSW 8.1 mph - N/A   Unknown
1:00 PM 55.4 °F - 41.0 °F 58% 29.89 in 9.0 mi SSE 4.6 mph - N/A   Unknown
2:00 PM 54 °F - 40 °F 48% 29.88 in 9 mi SSE 5.8 mph - -  
2:00 PM 55.4 °F - 39.2 °F 54% 29.88 in 9.0 mi SSE 9.2 mph - N/A   Unknown
3:00 PM 51.8 °F - 39.2 °F 62% 29.88 in 9.0 mi South 2.3 mph - N/A   Unknown
4:00 PM 55.4 °F - 42.8 °F 63% 29.86 in 9.0 mi South 9.2 mph - N/A   Unknown
5:00 PM 54 °F - 41 °F 50% 29.87 in 9 mi South 6.9 mph - -  
5:00 PM 53.6 °F - 41.0 °F 62% 29.87 in 9.0 mi South 9.2 mph - N/A   Unknown
6:00 PM 51.8 °F - 39.2 °F 62% 29.88 in 9.0 mi SSE 4.6 mph - N/A   Unknown
7:00 PM 48.2 °F - 37.4 °F 66% 29.89 in 9.0 mi South 4.6 mph - N/A   Unknown
8:00 PM 42 °F - 35 °F 70% 29.91 in 9 mi South 2.3 mph - -  
8:00 PM 42.8 °F - 35.6 °F 76% 29.91 in 9.0 mi South 2.3 mph - N/A   Unknown
9:00 PM 44.6 °F 42.2 °F 39.2 °F 81% 29.90 in 9.0 mi South 4.6 mph - N/A   Unknown
10:00 PM 44.6 °F 41.4 °F 41.0 °F 87% 29.89 in 9.0 mi South 5.8 mph - N/A   Unknown
10:45 PM 44.6 °F 43.1 °F 41.0 °F 87% 29.86 in 9.0 mi SSW 3.5 mph - N/A   Unknown
11:00 PM 44 °F - 42 °F 89% 29.90 in 9 mi SSW 5.8 mph - -  
11:00 PM 44.6 °F 41.4 °F 41.0 °F 87% 29.90 in 9.0 mi SSW 5.8 mph - N/A   Unknown
11:12 PM 44.6 °F 42.2 °F 42.8 °F 93% 29.86 in 9.0 mi South 4.6 mph - N/A   Unknown
11:23 PM 44.6 °F 43.1 °F 41.0 °F 87% 29.86 in 9.0 mi SSW 3.5 mph - N/A   Unknown
11:30 PM 44.6 °F 42.2 °F 41.0 °F 87% 29.86 in 9.0 mi SSW 4.6 mph - N/A   Unknown
11:33 PM 44.6 °F 42.2 °F 41.0 °F 87% 29.86 in 9.0 mi SSW 4.6 mph - N/A   Unknown
11:47 PM 44.6 °F 41.4 °F 41.0 °F 87% 29.87 in 9.0 mi SSW 5.8 mph - N/A   Unknown